Year,Month,Day,Hour,Minute,Value (Times are PST for temperature in C)
2007,08,23,00,00,15.10
2007,08,23,00,01,15.10
2007,08,23,00,02,15.10
2007,08,23,00,03,15.00
2007,08,23,00,04,15.00
2007,08,23,00,05,15.00
2007,08,23,00,06,15.00
2007,08,23,00,07,15.00
2007,08,23,00,08,14.90
2007,08,23,00,09,14.90
2007,08,23,00,10,14.90
2007,08,23,00,11,14.90
2007,08,23,00,12,14.80
2007,08,23,00,13,14.80
2007,08,23,00,14,14.80
2007,08,23,00,15,14.80
2007,08,23,00,16,14.80
2007,08,23,00,17,14.80
2007,08,23,00,18,14.80
2007,08,23,00,19,14.80
2007,08,23,00,20,14.80
2007,08,23,00,21,14.80
2007,08,23,00,22,14.70
2007,08,23,00,23,14.70
2007,08,23,00,24,14.70
2007,08,23,00,25,14.70
2007,08,23,00,26,14.70
2007,08,23,00,27,14.70
2007,08,23,00,28,14.70
2007,08,23,00,29,14.70
2007,08,23,00,30,14.60
2007,08,23,00,31,14.60
2007,08,23,00,32,14.60
2007,08,23,00,33,14.60
2007,08,23,00,34,14.60
2007,08,23,00,35,14.60
2007,08,23,00,36,14.60
2007,08,23,00,37,14.60
2007,08,23,00,38,14.60
2007,08,23,00,39,14.50
2007,08,23,00,40,14.60
2007,08,23,00,41,14.60
2007,08,23,00,42,14.60
2007,08,23,00,43,14.60
2007,08,23,00,44,14.60
2007,08,23,00,45,14.60
2007,08,23,00,46,14.60
2007,08,23,00,47,14.60
2007,08,23,00,48,14.60
2007,08,23,00,49,14.60
2007,08,23,00,50,14.60
2007,08,23,00,51,14.60
2007,08,23,00,52,14.60
2007,08,23,00,53,14.60
2007,08,23,00,54,14.60
2007,08,23,00,55,14.70
2007,08,23,00,56,14.70
2007,08,23,00,57,14.60
2007,08,23,00,58,14.60
2007,08,23,00,59,14.60
2007,08,23,01,00,14.60
2007,08,23,01,01,14.60
2007,08,23,01,02,14.60
2007,08,23,01,03,14.60
2007,08,23,01,04,14.60
2007,08,23,01,05,14.60
2007,08,23,01,06,14.60
2007,08,23,01,07,14.60
2007,08,23,01,08,14.60
2007,08,23,01,09,14.60
2007,08,23,01,10,14.60
2007,08,23,01,11,14.60
2007,08,23,01,12,14.60
2007,08,23,01,13,14.60
2007,08,23,01,14,14.60
2007,08,23,01,15,14.60
2007,08,23,01,16,14.70
2007,08,23,01,17,14.70
2007,08,23,01,18,14.70
2007,08,23,01,19,14.70
2007,08,23,01,20,14.70
2007,08,23,01,21,14.70
2007,08,23,01,22,14.70
2007,08,23,01,23,14.70
2007,08,23,01,24,14.70
2007,08,23,01,25,14.70
2007,08,23,01,26,14.70
2007,08,23,01,27,14.60
2007,08,23,01,28,14.60
2007,08,23,01,29,14.60
2007,08,23,01,30,14.60
2007,08,23,01,31,14.50
2007,08,23,01,32,14.50
2007,08,23,01,33,14.50
2007,08,23,01,34,14.50
2007,08,23,01,35,14.50
2007,08,23,01,36,14.50
2007,08,23,01,37,14.50
2007,08,23,01,38,14.50
2007,08,23,01,39,14.50
2007,08,23,01,40,14.50
2007,08,23,01,41,14.50
2007,08,23,01,42,14.50
2007,08,23,01,43,14.50
2007,08,23,01,44,14.50
2007,08,23,01,45,14.40
2007,08,23,01,46,14.40
2007,08,23,01,47,14.40
2007,08,23,01,48,14.30
2007,08,23,01,49,14.30
2007,08,23,01,50,14.30
2007,08,23,01,51,14.30
2007,08,23,01,52,14.20
2007,08,23,01,53,14.20
2007,08,23,01,54,14.20
2007,08,23,01,55,14.20
2007,08,23,01,56,14.20
2007,08,23,01,57,14.20
2007,08,23,01,58,14.20
2007,08,23,01,59,14.20
2007,08,23,02,00,14.20
2007,08,23,02,01,14.20
2007,08,23,02,02,14.20
2007,08,23,02,03,14.20
2007,08,23,02,04,14.20
2007,08,23,02,05,14.20
2007,08,23,02,06,14.10
2007,08,23,02,07,14.10
2007,08,23,02,08,14.10
2007,08,23,02,09,14.10
2007,08,23,02,10,14.10
2007,08,23,02,11,14.10
2007,08,23,02,12,14.00
2007,08,23,02,13,14.00
2007,08,23,02,14,14.00
2007,08,23,02,15,14.00
2007,08,23,02,16,14.00
2007,08,23,02,17,14.00
2007,08,23,02,18,13.90
2007,08,23,02,19,13.90
2007,08,23,02,20,13.90
2007,08,23,02,21,13.90
2007,08,23,02,22,14.00
2007,08,23,02,23,13.90
2007,08,23,02,24,14.00
2007,08,23,02,25,14.00
2007,08,23,02,26,14.00
2007,08,23,02,27,14.00
2007,08,23,02,28,14.00
2007,08,23,02,29,14.10
2007,08,23,02,30,14.10
2007,08,23,02,31,14.10
2007,08,23,02,32,14.10
2007,08,23,02,33,14.10
2007,08,23,02,34,14.20
2007,08,23,02,35,14.20
2007,08,23,02,36,14.20
2007,08,23,02,37,14.10
2007,08,23,02,38,14.10
2007,08,23,02,39,14.10
2007,08,23,02,40,14.00
2007,08,23,02,41,14.00
2007,08,23,02,42,14.00
2007,08,23,02,43,14.00
2007,08,23,02,44,14.00
2007,08,23,02,45,13.90
2007,08,23,02,46,13.90
2007,08,23,02,47,13.90
2007,08,23,02,48,13.90
2007,08,23,02,49,14.00
2007,08,23,02,50,14.00
2007,08,23,02,51,14.00
2007,08,23,02,52,14.00
2007,08,23,02,53,14.00
2007,08,23,02,54,14.00
2007,08,23,02,55,14.00
2007,08,23,02,56,14.00
2007,08,23,02,57,14.00
2007,08,23,02,58,14.00
2007,08,23,02,59,14.00
2007,08,23,03,00,14.00
2007,08,23,03,01,14.00
2007,08,23,03,02,14.10
2007,08,23,03,03,14.10
2007,08,23,03,04,14.10
2007,08,23,03,05,14.10
2007,08,23,03,06,14.00
2007,08,23,03,07,14.00
2007,08,23,03,08,14.00
2007,08,23,03,09,14.00
2007,08,23,03,10,14.00
2007,08,23,03,11,14.00
2007,08,23,03,12,14.00
2007,08,23,03,13,14.10
2007,08,23,03,14,14.10
2007,08,23,03,15,14.10
2007,08,23,03,16,14.10
2007,08,23,03,17,14.10
2007,08,23,03,18,14.10
2007,08,23,03,19,14.10
2007,08,23,03,20,14.10
2007,08,23,03,21,14.10
2007,08,23,03,22,14.10
2007,08,23,03,23,14.10
2007,08,23,03,24,14.10
2007,08,23,03,25,14.10
2007,08,23,03,26,14.20
2007,08,23,03,27,14.20
2007,08,23,03,28,14.20
2007,08,23,03,29,14.20
2007,08,23,03,30,14.20
2007,08,23,03,31,14.20
2007,08,23,03,32,14.20
2007,08,23,03,33,14.30
2007,08,23,03,34,14.30
2007,08,23,03,35,14.30
2007,08,23,03,36,14.30
2007,08,23,03,37,14.30
2007,08,23,03,38,14.30
2007,08,23,03,39,14.30
2007,08,23,03,40,14.40
2007,08,23,03,41,14.40
2007,08,23,03,42,14.40
2007,08,23,03,43,14.40
2007,08,23,03,44,14.40
2007,08,23,03,45,14.40
2007,08,23,03,46,14.40
2007,08,23,03,47,14.40
2007,08,23,03,48,14.40
2007,08,23,03,49,14.40
2007,08,23,03,50,14.40
2007,08,23,03,51,14.40
2007,08,23,03,52,14.40
2007,08,23,03,53,14.40
2007,08,23,03,54,14.40
2007,08,23,03,55,14.40
2007,08,23,03,56,14.40
2007,08,23,03,57,14.40
2007,08,23,03,58,14.40
2007,08,23,03,59,14.40
2007,08,23,04,00,14.50
2007,08,23,04,01,14.40
2007,08,23,04,02,14.40
2007,08,23,04,03,14.40
2007,08,23,04,04,14.40
2007,08,23,04,05,14.40
2007,08,23,04,06,14.40
2007,08,23,04,07,14.40
2007,08,23,04,08,14.40
2007,08,23,04,09,14.30
2007,08,23,04,10,14.30
2007,08,23,04,11,14.30
2007,08,23,04,12,14.30
2007,08,23,04,13,14.30
2007,08,23,04,14,14.20
2007,08,23,04,15,14.20
2007,08,23,04,16,14.20
2007,08,23,04,17,14.20
2007,08,23,04,18,14.20
2007,08,23,04,19,14.20
2007,08,23,04,20,14.20
2007,08,23,04,21,14.20
2007,08,23,04,22,14.20
2007,08,23,04,23,14.20
2007,08,23,04,24,14.20
2007,08,23,04,25,14.20
2007,08,23,04,26,14.20
2007,08,23,04,27,14.20
2007,08,23,04,28,14.20
2007,08,23,04,29,14.20
2007,08,23,04,30,14.20
2007,08,23,04,31,14.20
2007,08,23,04,32,14.20
2007,08,23,04,33,14.20
2007,08,23,04,34,14.20
2007,08,23,04,35,14.10
2007,08,23,04,36,14.10
2007,08,23,04,37,14.10
2007,08,23,04,38,14.10
2007,08,23,04,39,14.10
2007,08,23,04,40,14.10
2007,08,23,04,41,14.10
2007,08,23,04,42,14.10
2007,08,23,04,43,14.10
2007,08,23,04,44,14.20
2007,08,23,04,45,14.20
2007,08,23,04,46,14.20
2007,08,23,04,47,14.20
2007,08,23,04,48,14.20
2007,08,23,04,49,14.20
2007,08,23,04,50,14.20
2007,08,23,04,51,14.20
2007,08,23,04,52,14.20
2007,08,23,04,53,14.20
2007,08,23,04,54,14.20
2007,08,23,04,55,14.20
2007,08,23,04,56,14.20
2007,08,23,04,57,14.20
2007,08,23,04,58,14.20
2007,08,23,04,59,14.20
2007,08,23,05,00,14.20
2007,08,23,05,01,14.20
2007,08,23,05,02,14.20
2007,08,23,05,03,14.20
2007,08,23,05,04,14.10
2007,08,23,05,05,14.10
2007,08,23,05,06,14.10
2007,08,23,05,07,14.10
2007,08,23,05,08,14.10
2007,08,23,05,09,14.10
2007,08,23,05,10,14.10
2007,08,23,05,11,14.10
2007,08,23,05,12,14.00
2007,08,23,05,13,14.00
2007,08,23,05,14,14.00
2007,08,23,05,15,14.00
2007,08,23,05,16,14.00
2007,08,23,05,17,14.00
2007,08,23,05,18,14.00
2007,08,23,05,19,14.00
2007,08,23,05,20,14.00
2007,08,23,05,21,14.00
2007,08,23,05,22,14.00
2007,08,23,05,23,14.00
2007,08,23,05,24,14.00
2007,08,23,05,25,14.00
2007,08,23,05,26,14.00
2007,08,23,05,27,14.00
2007,08,23,05,28,14.00
2007,08,23,05,29,14.00
2007,08,23,05,30,14.00
2007,08,23,05,31,14.00
2007,08,23,05,32,14.00
2007,08,23,05,33,14.00
2007,08,23,05,34,14.00
2007,08,23,05,35,13.90
2007,08,23,05,36,13.90
2007,08,23,05,37,13.90
2007,08,23,05,38,13.90
2007,08,23,05,39,13.90
2007,08,23,05,40,14.00
2007,08,23,05,41,14.00
2007,08,23,05,42,14.00
2007,08,23,05,43,14.00
2007,08,23,05,44,14.00
2007,08,23,05,45,13.90
2007,08,23,05,46,13.90
2007,08,23,05,47,13.90
2007,08,23,05,48,13.90
2007,08,23,05,49,13.90
2007,08,23,05,50,13.90
2007,08,23,05,51,13.90
2007,08,23,05,52,13.90
2007,08,23,05,53,13.90
2007,08,23,05,54,13.90
2007,08,23,05,55,13.90
2007,08,23,05,56,13.80
2007,08,23,05,57,13.80
2007,08,23,05,58,13.80
2007,08,23,05,59,13.80
2007,08,23,06,00,13.70
2007,08,23,06,01,13.70
2007,08,23,06,02,13.70
2007,08,23,06,03,13.70
2007,08,23,06,04,13.70
2007,08,23,06,05,13.70
2007,08,23,06,06,13.70
2007,08,23,06,07,13.70
2007,08,23,06,08,13.70
2007,08,23,06,09,13.70
2007,08,23,06,10,13.70
2007,08,23,06,11,13.80
2007,08,23,06,12,13.70
2007,08,23,06,13,13.70
2007,08,23,06,14,13.70
2007,08,23,06,15,13.70
2007,08,23,06,16,13.70
2007,08,23,06,17,13.70
2007,08,23,06,18,13.70
2007,08,23,06,19,13.70
2007,08,23,06,20,13.70
2007,08,23,06,21,13.70
2007,08,23,06,22,13.70
2007,08,23,06,23,13.60
2007,08,23,06,24,13.60
2007,08,23,06,25,13.60
2007,08,23,06,26,13.60
2007,08,23,06,27,13.60
2007,08,23,06,28,13.50
2007,08,23,06,29,13.50
2007,08,23,06,30,13.40
2007,08,23,06,31,13.40
2007,08,23,06,32,13.40
2007,08,23,06,33,13.40
2007,08,23,06,34,13.40
2007,08,23,06,35,13.40
2007,08,23,06,36,13.40
2007,08,23,06,37,13.40
2007,08,23,06,38,13.40
2007,08,23,06,39,13.40
2007,08,23,06,40,13.40
2007,08,23,06,41,13.40
2007,08,23,06,42,13.30
2007,08,23,06,43,13.40
2007,08,23,06,44,13.40
2007,08,23,06,45,13.30
2007,08,23,06,46,13.30
2007,08,23,06,47,13.30
2007,08,23,06,48,13.30
2007,08,23,06,49,13.30
2007,08,23,06,50,13.30
2007,08,23,06,51,13.30
2007,08,23,06,52,13.30
2007,08,23,06,53,13.30
2007,08,23,06,54,13.30
2007,08,23,06,55,13.30
2007,08,23,06,56,13.30
2007,08,23,06,57,13.40
2007,08,23,06,58,13.40
2007,08,23,06,59,13.40
2007,08,23,07,00,13.40
2007,08,23,07,01,13.40
2007,08,23,07,02,13.40
2007,08,23,07,03,13.40
2007,08,23,07,04,13.40
2007,08,23,07,05,13.40
2007,08,23,07,06,13.50
2007,08,23,07,07,13.50
2007,08,23,07,08,13.50
2007,08,23,07,09,13.60
2007,08,23,07,10,13.60
2007,08,23,07,11,13.70
2007,08,23,07,12,13.70
2007,08,23,07,13,13.70
2007,08,23,07,14,13.70
2007,08,23,07,15,13.80
2007,08,23,07,16,13.80
2007,08,23,07,17,13.90
2007,08,23,07,18,13.90
2007,08,23,07,19,14.00
2007,08,23,07,20,14.00
2007,08,23,07,21,14.10
2007,08,23,07,22,14.10
2007,08,23,07,23,14.20
2007,08,23,07,24,14.20
2007,08,23,07,25,14.20
2007,08,23,07,26,14.30
2007,08,23,07,27,14.30
2007,08,23,07,28,14.40
2007,08,23,07,29,14.40
2007,08,23,07,30,14.50
2007,08,23,07,31,14.50
2007,08,23,07,32,14.60
2007,08,23,07,33,14.60
2007,08,23,07,34,14.60
2007,08,23,07,35,14.70
2007,08,23,07,36,14.70
2007,08,23,07,37,14.70
2007,08,23,07,38,14.70
2007,08,23,07,39,14.70
2007,08,23,07,40,14.80
2007,08,23,07,41,14.80
2007,08,23,07,42,14.80
2007,08,23,07,43,14.80
2007,08,23,07,44,14.80
2007,08,23,07,45,14.90
2007,08,23,07,46,14.90
2007,08,23,07,47,14.90
2007,08,23,07,48,14.90
2007,08,23,07,49,14.90
2007,08,23,07,50,14.90
2007,08,23,07,51,14.80
2007,08,23,07,52,14.90
2007,08,23,07,53,14.80
2007,08,23,07,54,14.80
2007,08,23,07,55,14.80
2007,08,23,07,56,14.80
2007,08,23,07,57,14.80
2007,08,23,07,58,14.80
2007,08,23,07,59,14.80
2007,08,23,08,00,14.80
2007,08,23,08,01,14.90
2007,08,23,08,02,14.90
2007,08,23,08,03,14.90
2007,08,23,08,04,14.90
2007,08,23,08,05,14.90
2007,08,23,08,06,14.90
2007,08,23,08,07,14.90
2007,08,23,08,08,15.00
2007,08,23,08,09,15.00
2007,08,23,08,10,15.00
2007,08,23,08,11,15.10
2007,08,23,08,12,15.10
2007,08,23,08,13,15.10
2007,08,23,08,14,15.20
2007,08,23,08,15,15.20
2007,08,23,08,16,15.20
2007,08,23,08,17,15.30
2007,08,23,08,18,15.30
2007,08,23,08,19,15.40
2007,08,23,08,20,15.40
2007,08,23,08,21,15.50
2007,08,23,08,22,15.50
2007,08,23,08,23,15.50
2007,08,23,08,24,15.60
2007,08,23,08,25,15.60
2007,08,23,08,26,15.70
2007,08,23,08,27,15.70
2007,08,23,08,28,15.80
2007,08,23,08,29,15.80
2007,08,23,08,30,15.80
2007,08,23,08,31,15.90
2007,08,23,08,32,15.90
2007,08,23,08,33,16.10
2007,08,23,08,34,16.10
2007,08,23,08,35,16.20
2007,08,23,08,36,16.20
2007,08,23,08,37,16.30
2007,08,23,08,38,16.40
2007,08,23,08,39,16.40
2007,08,23,08,40,16.60
2007,08,23,08,41,16.60
2007,08,23,08,42,16.70
2007,08,23,08,43,16.70
2007,08,23,08,44,16.80
2007,08,23,08,45,16.90
2007,08,23,08,46,17.00
2007,08,23,08,47,17.20
2007,08,23,08,48,17.30
2007,08,23,08,49,17.50
2007,08,23,08,50,17.70
2007,08,23,08,51,17.80
2007,08,23,08,52,17.90
2007,08,23,08,53,18.10
2007,08,23,08,54,18.20
2007,08,23,08,55,18.20
2007,08,23,08,56,18.20
2007,08,23,08,57,18.20
2007,08,23,08,58,18.20
2007,08,23,08,59,18.30
2007,08,23,09,00,18.30
2007,08,23,09,01,18.20
2007,08,23,09,02,18.20
2007,08,23,09,03,18.30
2007,08,23,09,04,18.30
2007,08,23,09,05,18.30
2007,08,23,09,06,18.30
2007,08,23,09,07,18.40
2007,08,23,09,08,18.40
2007,08,23,09,09,18.40
2007,08,23,09,10,18.40
2007,08,23,09,11,18.40
2007,08,23,09,12,18.40
2007,08,23,09,13,18.30
2007,08,23,09,14,18.30
2007,08,23,09,15,18.30
2007,08,23,09,16,18.30
2007,08,23,09,17,18.30
2007,08,23,09,18,18.30
2007,08,23,09,19,18.30
2007,08,23,09,20,18.30
2007,08,23,09,21,18.30
2007,08,23,09,22,18.30
2007,08,23,09,23,18.30
2007,08,23,09,24,18.30
2007,08,23,09,25,18.30
2007,08,23,09,26,18.40
2007,08,23,09,27,18.40
2007,08,23,09,28,18.50
2007,08,23,09,29,18.50
2007,08,23,09,30,18.50
2007,08,23,09,31,18.50
2007,08,23,09,32,18.50
2007,08,23,09,33,18.50
2007,08,23,09,34,18.50
2007,08,23,09,35,18.50
2007,08,23,09,36,18.50
2007,08,23,09,37,18.50
2007,08,23,09,38,18.50
2007,08,23,09,39,18.50
2007,08,23,09,40,18.40
2007,08,23,09,41,18.40
2007,08,23,09,42,18.40
2007,08,23,09,43,18.40
2007,08,23,09,44,18.40
2007,08,23,09,45,18.30
2007,08,23,09,46,18.30
2007,08,23,09,47,18.30
2007,08,23,09,48,18.30
2007,08,23,09,49,18.30
2007,08,23,09,50,18.40
2007,08,23,09,51,18.40
2007,08,23,09,52,18.50
2007,08,23,09,53,18.50
2007,08,23,09,54,18.50
2007,08,23,09,55,18.50
2007,08,23,09,56,18.50
2007,08,23,09,57,18.50
2007,08,23,09,58,18.50
2007,08,23,09,59,18.50
2007,08,23,10,00,18.60
2007,08,23,10,01,18.60
2007,08,23,10,02,18.60
2007,08,23,10,03,18.60
2007,08,23,10,04,18.70
2007,08,23,10,05,18.80
2007,08,23,10,06,18.80
2007,08,23,10,07,18.90
2007,08,23,10,08,18.90
2007,08,23,10,09,18.90
2007,08,23,10,10,19.00
2007,08,23,10,11,19.10
2007,08,23,10,12,19.10
2007,08,23,10,13,19.20
2007,08,23,10,14,19.30
2007,08,23,10,15,19.30
2007,08,23,10,16,19.10
2007,08,23,10,17,19.10
2007,08,23,10,18,19.10
2007,08,23,10,19,19.10
2007,08,23,10,20,19.10
2007,08,23,10,21,19.20
2007,08,23,10,22,19.30
2007,08,23,10,23,19.40
2007,08,23,10,24,19.30
2007,08,23,10,25,19.20
2007,08,23,10,26,19.10
2007,08,23,10,27,19.10
2007,08,23,10,28,19.10
2007,08,23,10,29,19.10
2007,08,23,10,30,19.10
2007,08,23,10,31,19.10
2007,08,23,10,32,19.10
2007,08,23,10,33,19.10
2007,08,23,10,34,19.10
2007,08,23,10,35,19.10
2007,08,23,10,36,19.10
2007,08,23,10,37,19.00
2007,08,23,10,38,18.90
2007,08,23,10,39,18.90
2007,08,23,10,40,18.90
2007,08,23,10,41,18.90
2007,08,23,10,42,18.80
2007,08,23,10,43,18.80
2007,08,23,10,44,18.90
2007,08,23,10,45,18.90
2007,08,23,10,46,19.10
2007,08,23,10,47,19.00
2007,08,23,10,48,18.90
2007,08,23,10,49,18.90
2007,08,23,10,50,18.90
2007,08,23,10,51,18.90
2007,08,23,10,52,18.90
2007,08,23,10,53,18.90
2007,08,23,10,54,18.90
2007,08,23,10,55,18.90
2007,08,23,10,56,18.80
2007,08,23,10,57,18.80
2007,08,23,10,58,18.80
2007,08,23,10,59,18.90
2007,08,23,11,00,18.90
2007,08,23,11,01,18.90
2007,08,23,11,02,19.00
2007,08,23,11,03,19.10
2007,08,23,11,04,19.10
2007,08,23,11,05,19.00
2007,08,23,11,06,18.90
2007,08,23,11,07,18.90
2007,08,23,11,08,18.90
2007,08,23,11,09,18.90
2007,08,23,11,10,18.90
2007,08,23,11,11,18.90
2007,08,23,11,12,19.00
2007,08,23,11,13,19.10
2007,08,23,11,14,19.10
2007,08,23,11,15,19.20
2007,08,23,11,16,19.30
2007,08,23,11,17,19.40
2007,08,23,11,18,19.40
2007,08,23,11,19,19.40
2007,08,23,11,20,19.40
2007,08,23,11,21,19.40
2007,08,23,11,22,19.30
2007,08,23,11,23,19.20
2007,08,23,11,24,19.30
2007,08,23,11,25,19.40
2007,08,23,11,26,19.40
2007,08,23,11,27,19.40
2007,08,23,11,28,19.40
2007,08,23,11,29,19.30
2007,08,23,11,30,19.30
2007,08,23,11,31,19.30
2007,08,23,11,32,19.30
2007,08,23,11,33,19.30
2007,08,23,11,34,19.30
2007,08,23,11,35,19.30
2007,08,23,11,36,19.30
2007,08,23,11,37,19.30
2007,08,23,11,38,19.30
2007,08,23,11,39,19.30
2007,08,23,11,40,19.30
2007,08,23,11,41,19.40
2007,08,23,11,42,19.50
2007,08,23,11,43,19.50
2007,08,23,11,44,19.60
2007,08,23,11,45,19.70
2007,08,23,11,46,19.90
2007,08,23,11,47,19.90
2007,08,23,11,48,19.90
2007,08,23,11,49,19.90
2007,08,23,11,50,19.90
2007,08,23,11,51,20.00
2007,08,23,11,52,20.10
2007,08,23,11,53,20.20
2007,08,23,11,54,20.40
2007,08,23,11,55,20.50
2007,08,23,11,56,20.50
2007,08,23,11,57,20.60
2007,08,23,11,58,20.60
2007,08,23,11,59,20.70
2007,08,23,12,00,20.70
2007,08,23,12,01,20.60
2007,08,23,12,02,20.50
2007,08,23,12,03,20.50
2007,08,23,12,04,20.40
2007,08,23,12,05,20.30
2007,08,23,12,06,20.30
2007,08,23,12,07,20.40
2007,08,23,12,08,20.40
2007,08,23,12,09,20.40
2007,08,23,12,10,20.40
2007,08,23,12,11,20.40
2007,08,23,12,12,20.40
2007,08,23,12,13,20.50
2007,08,23,12,14,20.50
2007,08,23,12,15,20.60
2007,08,23,12,16,20.50
2007,08,23,12,17,20.50
2007,08,23,12,18,20.50
2007,08,23,12,19,20.40
2007,08,23,12,20,20.50
2007,08,23,12,21,20.50
2007,08,23,12,22,20.50
2007,08,23,12,23,20.50
2007,08,23,12,24,20.50
2007,08,23,12,25,20.50
2007,08,23,12,26,20.50
2007,08,23,12,27,20.50
2007,08,23,12,28,20.40
2007,08,23,12,29,20.40
2007,08,23,12,30,20.50
2007,08,23,12,31,20.50
2007,08,23,12,32,20.50
2007,08,23,12,33,20.50
2007,08,23,12,34,20.50
2007,08,23,12,35,20.50
2007,08,23,12,36,20.50
2007,08,23,12,37,20.40
2007,08,23,12,38,20.40
2007,08,23,12,39,20.40
2007,08,23,12,40,20.30
2007,08,23,12,41,20.30
2007,08,23,12,42,20.20
2007,08,23,12,43,20.30
2007,08,23,12,44,20.30
2007,08,23,12,45,20.30
2007,08,23,12,46,20.30
2007,08,23,12,47,20.30
2007,08,23,12,48,20.30
2007,08,23,12,49,20.30
2007,08,23,12,50,20.30
2007,08,23,12,51,20.30
2007,08,23,12,52,20.30
2007,08,23,12,53,20.30
2007,08,23,12,54,20.40
2007,08,23,12,55,20.40
2007,08,23,12,56,20.50
2007,08,23,12,57,20.50
2007,08,23,12,58,20.50
2007,08,23,12,59,20.50
2007,08,23,13,00,20.50
2007,08,23,13,01,20.50
2007,08,23,13,02,20.50
2007,08,23,13,03,20.50
2007,08,23,13,04,20.50
2007,08,23,13,05,20.50
2007,08,23,13,06,20.50
2007,08,23,13,07,20.50
2007,08,23,13,08,20.40
2007,08,23,13,09,20.50
2007,08,23,13,10,20.50
2007,08,23,13,11,20.60
2007,08,23,13,12,20.70
2007,08,23,13,13,20.70
2007,08,23,13,14,20.70
2007,08,23,13,15,20.80
2007,08,23,13,16,21.00
2007,08,23,13,17,21.00
2007,08,23,13,18,21.10
2007,08,23,13,19,21.30
2007,08,23,13,20,21.30
2007,08,23,13,21,21.30
2007,08,23,13,22,21.30
2007,08,23,13,23,21.30
2007,08,23,13,24,21.30
2007,08,23,13,25,21.30
2007,08,23,13,26,21.20
2007,08,23,13,27,21.20
2007,08,23,13,28,21.30
2007,08,23,13,29,21.30
2007,08,23,13,30,21.40
2007,08,23,13,31,21.40
2007,08,23,13,32,21.40
2007,08,23,13,33,21.30
2007,08,23,13,34,21.30
2007,08,23,13,35,21.30
2007,08,23,13,36,21.40
2007,08,23,13,37,21.40
2007,08,23,13,38,21.40
2007,08,23,13,39,21.30
2007,08,23,13,40,21.30
2007,08,23,13,41,21.20
2007,08,23,13,42,21.30
2007,08,23,13,43,21.30
2007,08,23,13,44,21.30
2007,08,23,13,45,21.30
2007,08,23,13,46,21.40
2007,08,23,13,47,21.40
2007,08,23,13,48,21.40
2007,08,23,13,49,21.40
2007,08,23,13,50,21.40
2007,08,23,13,51,21.40
2007,08,23,13,52,21.30
2007,08,23,13,53,21.30
2007,08,23,13,54,21.30
2007,08,23,13,55,21.30
2007,08,23,13,56,21.30
2007,08,23,13,57,21.30
2007,08,23,13,58,21.30
2007,08,23,13,59,21.30
2007,08,23,14,00,21.20
2007,08,23,14,01,21.00
2007,08,23,14,02,21.00
2007,08,23,14,03,21.00
2007,08,23,14,04,21.10
2007,08,23,14,05,21.10
2007,08,23,14,06,21.20
2007,08,23,14,07,21.30
2007,08,23,14,08,21.30
2007,08,23,14,09,21.30
2007,08,23,14,10,21.30
2007,08,23,14,11,21.30
2007,08,23,14,12,21.30
2007,08,23,14,13,21.30
2007,08,23,14,14,21.30
2007,08,23,14,15,21.40
2007,08,23,14,16,21.30
2007,08,23,14,17,21.30
2007,08,23,14,18,21.30
2007,08,23,14,19,21.30
2007,08,23,14,20,21.30
2007,08,23,14,21,21.30
2007,08,23,14,22,21.30
2007,08,23,14,23,21.30
2007,08,23,14,24,21.30
2007,08,23,14,25,21.20
2007,08,23,14,26,21.30
2007,08,23,14,27,21.30
2007,08,23,14,28,21.30
2007,08,23,14,29,21.40
2007,08,23,14,30,21.50
2007,08,23,14,31,21.60
2007,08,23,14,32,21.60
2007,08,23,14,33,21.50
2007,08,23,14,34,21.40
2007,08,23,14,35,21.30
2007,08,23,14,36,21.30
2007,08,23,14,37,21.30
2007,08,23,14,38,21.40
2007,08,23,14,39,21.30
2007,08,23,14,40,21.30
2007,08,23,14,41,21.40
2007,08,23,14,42,21.60
2007,08,23,14,43,21.60
2007,08,23,14,44,21.60
2007,08,23,14,45,21.70
2007,08,23,14,46,21.70
2007,08,23,14,47,21.70
2007,08,23,14,48,21.70
2007,08,23,14,49,21.60
2007,08,23,14,50,21.60
2007,08,23,14,51,21.60
2007,08,23,14,52,21.60
2007,08,23,14,53,21.60
2007,08,23,14,54,21.60
2007,08,23,14,55,21.60
2007,08,23,14,56,21.60
2007,08,23,14,57,21.60
2007,08,23,14,58,21.60
2007,08,23,14,59,21.70
2007,08,23,15,00,21.70
2007,08,23,15,01,21.80
2007,08,23,15,02,21.90
2007,08,23,15,03,21.90
2007,08,23,15,04,21.90
2007,08,23,15,05,22.00
2007,08,23,15,06,22.10
2007,08,23,15,07,22.20
2007,08,23,15,08,22.30
2007,08,23,15,09,22.30
2007,08,23,15,10,22.20
2007,08,23,15,11,22.20
2007,08,23,15,12,22.00
2007,08,23,15,13,21.90
2007,08,23,15,14,21.90
2007,08,23,15,15,21.80
2007,08,23,15,16,21.80
2007,08,23,15,17,21.80
2007,08,23,15,18,21.70
2007,08,23,15,19,21.70
2007,08,23,15,20,21.70
2007,08,23,15,21,21.70
2007,08,23,15,22,21.70
2007,08,23,15,23,21.60
2007,08,23,15,24,21.50
2007,08,23,15,25,21.40
2007,08,23,15,26,21.40
2007,08,23,15,27,21.30
2007,08,23,15,28,21.30
2007,08,23,15,29,21.40
2007,08,23,15,30,21.40
2007,08,23,15,31,21.40
2007,08,23,15,32,21.30
2007,08,23,15,33,21.20
2007,08,23,15,34,21.20
2007,08,23,15,35,21.30
2007,08,23,15,36,21.30
2007,08,23,15,37,21.30
2007,08,23,15,38,21.30
2007,08,23,15,39,21.30
2007,08,23,15,40,21.30
2007,08,23,15,41,21.20
2007,08,23,15,42,21.20
2007,08,23,15,43,21.20
2007,08,23,15,44,21.30
2007,08,23,15,45,21.30
2007,08,23,15,46,21.30
2007,08,23,15,47,21.30
2007,08,23,15,48,21.30
2007,08,23,15,49,21.40
2007,08,23,15,50,21.40
2007,08,23,15,51,21.40
2007,08,23,15,52,21.40
2007,08,23,15,53,21.60
2007,08,23,15,54,21.60
2007,08,23,15,55,21.90
2007,08,23,15,56,21.90
2007,08,23,15,57,21.80
2007,08,23,15,58,21.80
2007,08,23,15,59,21.80
2007,08,23,16,00,21.80
2007,08,23,16,01,21.70
2007,08,23,16,02,21.70
2007,08,23,16,03,21.70
2007,08,23,16,04,21.80
2007,08,23,16,05,21.90
2007,08,23,16,06,22.20
2007,08,23,16,07,22.40
2007,08,23,16,08,22.50
2007,08,23,16,09,22.60
2007,08,23,16,10,22.70
2007,08,23,16,11,22.80
2007,08,23,16,12,22.80
2007,08,23,16,13,22.80
2007,08,23,16,14,22.80
2007,08,23,16,15,22.80
2007,08,23,16,16,22.80
2007,08,23,16,17,22.80
2007,08,23,16,18,22.70
2007,08,23,16,19,22.60
2007,08,23,16,20,22.60
2007,08,23,16,21,22.70
2007,08,23,16,22,22.70
2007,08,23,16,23,22.70
2007,08,23,16,24,22.60
2007,08,23,16,25,22.60
2007,08,23,16,26,22.60
2007,08,23,16,27,22.50
2007,08,23,16,28,22.40
2007,08,23,16,29,22.40
2007,08,23,16,30,22.50
2007,08,23,16,31,22.60
2007,08,23,16,32,22.60
2007,08,23,16,33,22.50
2007,08,23,16,34,22.60
2007,08,23,16,35,22.60
2007,08,23,16,36,22.70
2007,08,23,16,37,22.70
2007,08,23,16,38,22.90
2007,08,23,16,39,22.80
2007,08,23,16,40,22.70
2007,08,23,16,41,22.70
2007,08,23,16,42,22.70
2007,08,23,16,43,22.70
2007,08,23,16,44,22.80
2007,08,23,16,45,22.90
2007,08,23,16,46,22.80
2007,08,23,16,47,22.80
2007,08,23,16,48,22.70
2007,08,23,16,49,22.70
2007,08,23,16,50,22.70
2007,08,23,16,51,22.70
2007,08,23,16,52,22.70
2007,08,23,16,53,22.60
2007,08,23,16,54,22.60
2007,08,23,16,55,22.60
2007,08,23,16,56,22.40
2007,08,23,16,57,22.40
2007,08,23,16,58,22.40
2007,08,23,16,59,22.30
2007,08,23,17,00,22.30
2007,08,23,17,01,22.20
2007,08,23,17,02,22.10
2007,08,23,17,03,22.10
2007,08,23,17,04,22.10
2007,08,23,17,05,22.10
2007,08,23,17,06,22.20
2007,08,23,17,07,22.20
2007,08,23,17,08,22.10
2007,08,23,17,09,22.00
2007,08,23,17,10,21.80
2007,08,23,17,11,21.70
2007,08,23,17,12,21.70
2007,08,23,17,13,21.70
2007,08,23,17,14,21.60
2007,08,23,17,15,21.60
2007,08,23,17,16,21.60
2007,08,23,17,17,21.60
2007,08,23,17,18,21.60
2007,08,23,17,19,21.70